Regional Weather Roundup
Issued by NWS Sterling, VA

Home | Current Version | Previous Version | Text Only | Print | Product List | Glossary Off
Versions: 1 2 3 4 5 6 7 8 9 10 11 12 13 14 15 16 17 18 19 20 21 22 23 24 25 26 27 28 29 30 31 32 33 34 35 36 37 38 39 40 41 42 43 44 45 46 47 48 49 50

000
ASUS41 KLWX 031610
RWRLWX

REGIONAL WEATHER ROUNDUP
NATIONAL WEATHER SERVICE BALTIMORE MD/WASHINGTON DC
1200 PM EDT SUN MAY 03 2015

Note: "FAIR" indicates few or no clouds below 12,000 feet
with no significant weather and/or obstructions to visibility.
 TC=TEMPERATURE CELSIUS

 * =Non NWS site. Station does not report precipitation (e.g. rain,
    snow, etc.), thunder, or fog.

DCZ001-MDZ009-015-VAZ040>042-051-053>054-031700-
WASHINGTON METRO

CITY           SKY/WX    TMP DP  RH WIND       PRES   REMARKS
WASHINGTON NAT MOSUNNY   77  41  27 E3        30.13F
DULLES         MOSUNNY   76  39  26 NW8       30.14S
ANDREWS AFB    SUNNY     77  41  28 VRB1      30.13S
FT BELVOIR     SUNNY     78  40  25 VRB7      30.13S
QUANTICO       SUNNY     70  54  56 S5        30.15S
COLLEGE PARK*  SUNNY     77  39  25 SW3       30.12F
LEESBURG*      SUNNY     77  46  33 SW3       30.14S
MANASSAS*      SUNNY     77  37  24 W5        30.14S
GAITHERSBURG*  SUNNY     75  43  31 W3        30.17S

$$

MDZ006>007-011-014-031700-
BALTIMORE METRO

CITY           SKY/WX    TMP DP  RH WIND       PRES   REMARKS
BWI AIRPORT    MOSUNNY   77  44  30 W6G16     30.11S
MD SCIENCE CTR   N/A     74  41  30 MISG      30.11F
MARTIN STATE   MOSUNNY   72  52  49 SE7       30.13
ANNAPOLIS      SUNNY     64  55  72 SE8       30.12S
FORT MEADE*    SUNNY     75  37  25 CALM      30.14S

$$

MDZ012-015-019>023-031700-
MARYLAND EASTERN SHORE

CITY           SKY/WX    TMP DP  RH WIND       PRES   REMARKS
OCEAN CITY     SUNNY     62  53  72 S6        30.12R
SALISBURY      SUNNY     76  46  34 NW8       30.11S
BAY BRIDGE AP*   N/A    N/A N/A N/A W6        30.13R
CAMBRIDGE*     SUNNY     72  43  35 NW7       30.12S
EASTON*        SUNNY     75  50  41 CALM      30.16R

$$

MDZ017>025-031700-
SOUTHERN MARYLAND

CITY           SKY/WX    TMP DP  RH WIND       PRES   REMARKS
PATUXENT RIVER MOSUNNY   74  48  39 N6        30.13R
ST INIGOES     SUNNY     73  51  46 SW8       30.13R
LEONARDTOWN*   SUNNY     75  37  25 N3        30.14S

$$

MDZ003>005-031700-
NORTH CENTRAL MARYLAND

CITY           SKY/WX    TMP DP  RH WIND       PRES   REMARKS
FREDERICK*     SUNNY     79  28  15 W8        30.16S
HAGERSTOWN APT SUNNY     73  41  31 VRB7      30.13F
WESTMINSTER*   SUNNY     72  36  26 SW5       30.14S

$$

MDZ501>502-031700-
WESTERN MARYLAND

CITY           SKY/WX    TMP DP  RH WIND       PRES   REMARKS
OAKLAND*       PTSUNNY   63  41  45 W3        30.20S
CUMBERLAND*    MOSUNNY   72  45  37 CALM      30.17F

$$

VAZ025>031-031700-
SHENANDOAH VALLEY

CITY           SKY/WX    TMP DP  RH WIND       PRES   REMARKS
WINCHESTER*    SUNNY     75  36  23 SW7       30.15S
FRONT ROYAL*   FAIR      73  45  35 SE6       30.14F
LURAY*         FAIR      73  50  43 SE6       30.16F
NEW MARKET*    FAIR      72  47  41 E3        30.15S
STAUNTON*      SUNNY     73  39  29 W6        30.19F
WAYNESBORO*    FAIR      70  38  31 CALM      30.19S

$$

WVZ021-048>050-054>055-031700-
EASTERN WEST VIRGINIA PANHANDLE

CITY           SKY/WX    TMP DP  RH WIND       PRES   REMARKS
MARTINSBURG    SUNNY     74  42  31 VRB5      30.13F
PETERSBURG*    PTSUNNY   72  33  24 CALM      30.16F

$$

VAZ036>039-050-031700-
CENTRAL FOOTHILLS

CITY           SKY/WX    TMP DP  RH WIND       PRES   REMARKS
CHARLOTTESVILL PTSUNNY   74  40  29 S5        30.15S
CULPEPER*      NOT AVBL
ORANGE*        MOSUNNY   75  41  29 CALM      30.16F
GORDONSVILLE*  FAIR      75  44  32 CALM      30.15S
WARRENTON*     FAIR      78  46  31 S3        30.14S

$$

VAZ055>057-031700-
NORTH AND CENTRAL PIEDMONT

CITY           SKY/WX    TMP DP  RH WIND       PRES   REMARKS
FREDERICKSBRG* SUNNY     79  40  25 NW7       30.13S
STAFFORD*      SUNNY     76  33  21 NW3       30.18S

$$

NCZ024-NYZ072-PAZ021-071-VAZ022-071-031700-
OTHER REGIONAL OBSERVATIONS

CITY           SKY/WX    TMP DP  RH WIND       PRES   REMARKS
NEW YORK CITY  SUNNY     73  38  27 W6        30.11F
PHILADELPHIA   MOSUNNY   72  45  37 SE6       30.11S
PITTSBURGH     MOSUNNY   72  41  32 W10       30.14S
ROANOKE        PTSUNNY   72  38  29 VRB3      30.22S
RICHMOND       MOSUNNY   79  38  22 VRB5      30.15S
RALEIGH        MOSUNNY   75  53  46 SW6       30.21S

$$

ANZ530>537-031700-
MARINE OBSERVATIONS

STATION/POSITION TIME  TEMP    WIND        PRES
                       AIR SEA DIR/SP/G
                 (UTC) (F)     (DEG/KT/KT) (MB)
THOMAS PT LIGHT  1600   64 58  160/  3/  3 1020.8R
BALT KEY BRIDGE  1500   59     150/  4/  4 1019.9R
COVE POINT       1500   62     350/  7/  8 1020.9R
LEWISETTA        1500   69 61              1020.1R
SOLOMONS ISLAND  1506      59                N/A
PINEY POINT      1500          320/  8/  8   N/A

$$



USA.gov is the U.S. government's official web portal to all federal, state and local government web resources and services.